{"data":{"norad_id":28366,"epoch":"2026-05-25T04:25:14.773728Z","epoch_age_seconds":69528,"freshness":"FRESH","line1":"1 28366U 04025A   26145.18419877  .00000121  00000+0  51011-4 0  9994","line2":"2 28366  98.0996 312.4691 0104708 320.0849  39.2673 14.38026540148332","mean_motion":14.3802654,"eccentricity":0.0104708,"inclination_deg":98.0996,"raan_deg":312.4691,"arg_perigee_deg":320.0849,"mean_anomaly_deg":39.2673,"bstar":5.1011000000000003e-5,"rev_number":14833,"period_min":100.13723390668,"perigee_km":690.23158554517,"apogee_km":839.82085241173,"semimajor_km":7143.1632189784,"source":"CELESTRAK","updated_at":"2026-05-25T13:37:55.058684Z"}}